This is the latest recevied weather packets stored in our database for station/object W6SNO-1. If no packets are shown the sender has not sent any weather packets the latest 10 day(s).
| Time | Temp. | Humidity | Pressure | Rain* | Wind** | Luminosity | Snow |
|---|---|---|---|---|---|---|---|
| 1778010088 | 15° C | 71% | 1016.6 hPa | 0 mm | - | 165 W/m² | - |
| 1778009785 | 15° C | 71% | 1016.7 hPa | 0 mm | - | 145 W/m² | - |
| 1778009482 | 15° C | 71% | 1016.7 hPa | 0 mm | - | 156 W/m² | - |
| 1778009181 | 15° C | 71% | 1016.8 hPa | 0 mm | - | 187 W/m² | - |
| 1778008877 | 15° C | 70% | 1016.6 hPa | 0 mm | - | 225 W/m² | - |
| 1778008576 | 15° C | 69% | 1016.4 hPa | 0 mm | - | 299 W/m² | - |
| 1778008273 | 15° C | 70% | 1016.4 hPa | 0 mm | - | 296 W/m² | - |
| 1778007969 | 14.44° C | 70% | 1016.5 hPa | 0 mm | - | 283 W/m² | - |
| 1778007664 | 14.44° C | 71% | 1016.5 hPa | 0 mm | - | 256 W/m² | - |
| 1778007361 | 14.44° C | 71% | 1016.6 hPa | 0 mm | - | 207 W/m² | - |
| 1778007057 | 14.44° C | 71% | 1016.4 hPa | 0 mm | - | 220 W/m² | - |
| 1778006754 | 14.44° C | 71% | 1016.4 hPa | 0 mm | - | 216 W/m² | - |
| 1778006451 | 14.44° C | 71% | 1016.7 hPa | 0 mm | - | 206 W/m² | - |
| 1778006148 | 14.44° C | 71% | 1016.7 hPa | 0 mm | - | 169 W/m² | - |
| 1778005845 | 14.44° C | 71% | 1016.5 hPa | 0 mm | - | 152 W/m² | - |
| 1778005541 | 14.44° C | 70% | 1016.5 hPa | 0 mm | - | 143 W/m² | - |
| 1778005238 | 14.44° C | 71% | 1016.6 hPa | 0 mm | - | 146 W/m² | - |
| 1778004935 | 13.89° C | 72% | 1016.5 hPa | 0 mm | - | 140 W/m² | - |
| 1778004632 | 13.89° C | 71% | 1016.5 hPa | 0 mm | - | 144 W/m² | - |
| 1778004328 | 13.89° C | 72% | 1016.4 hPa | 0 mm | - | 131 W/m² | - |
| 1778004026 | 13.89° C | 72% | 1016.3 hPa | 0 mm | - | 114 W/m² | - |
| 1778003720 | 13.89° C | 73% | 1016.3 hPa | 0 mm | - | 110 W/m² | - |
| 1778003418 | 13.33° C | 72% | 1016.2 hPa | 0 mm | - | 99 W/m² | - |
| 1778003115 | 13.33° C | 72% | 1016.4 hPa | 0 mm | - | 113 W/m² | - |
| 1778002810 | 13.89° C | 72% | 1016.3 hPa | 0 mm | - | 110 W/m² | - |
* Rain latest hour (hover to see other rain measurements)
** Current wind speed in m/s (hover to see current wind gust speed)